Temp
10 9 9 8 8 7 7 7 6 6 6 6 6 6 6 6 6 6 6 6 6 6 5 5 5 4 4 4 4 4 4 4 3 3 3 3 3 3 3 3 3 3 3 3 3 3 2 2 2 2 2 2 2 2 1 1 1 1 1 0 0 0 -0 -1 -1 -1 -1 -2 -2
10 10 9 8 8 7 7 7 6 6 6 6 6 6 6 6 6 6 5 5 5 5 5 5 4 4 4 4 4 4 4 3 3 3 3 3 3 3 3 3 3 3 3 3 3 3 2 2 2 2 2 2 2 2 1 1 1 1 0 0 -0 -0 -1 -1 -1 -2 -2 -3 -3
11 10 9 9 8 8 7 7 7 7 6 6 6 6 6 6 6 5 5 5 5 5 5 4 4 4 4 4 4 4 4 3 3 3 3 3 3 3 3 3 3 3 3 3 3 3 2 2 2 2 2 2 1 1 1 1 1 0 0 -0 -0 -1 -1 -2 -2 -2 -3 -3 -3
10 10 9 9 9 8 8 8 7 7 7 6 6 6 6 6 5 5 5 5 5 5 4 4 4 4 4 4 4 4 3 3 3 3 3 3 3 3 3 3 3 3 3 3 3 3 2 2 2 2 2 2 1 1 1 1 1 0 -0 -0 -1 -1 -2 -2 -2 -3 -3 -3 -4
10 10 10 9 9 9 8 8 7 7 7 6 6 6 6 5 5 5 5 5 4 4 4 4 4 4 4 4 4 4 3 3 3 3 3 3 3 3 3 3 3 3 3 3 3 2 2 2 2 2 2 2 1 1 1 1 0 0 -0 -1 -1 -2 -2 -3 -3 -3 -4 -4 -4
10 10 10 9 9 8 8 8 7 7 7 6 6 6 5 5 5 5 5 4 4 4 4 4 4 4 4 4 4 4 4 3 3 3 3 3 3 3 3 3 3 3 3 3 3 2 2 2 2 2 2 2 1 1 1 1 0 -0 -1 -1 -2 -2 -3 -3 -3 -4 -4 -4 -4
10 10 9 9 9 8 8 8 7 7 6 6 6 6 6 5 5 5 4 4 4 4 4 4 3 4 4 4 4 4 3 3 3 3 3 3 3 3 3 3 3 3 3 3 3 2 2 2 2 2 2 2 1 1 1 0 -1 -1 -1 -2 -2 -3 -3 -3 -4 -4 -4 -4 -4
10 10 9 9 9 8 8 8 7 7 7 6 6 6 6 5 5 5 4 4 4 4 3 3 3 4 4 4 4 3 3 3 3 3 3 3 3 3 3 3 3 3 3 3 2 2 2 2 2 2 2 1 1 1 0 -0 -1 -2 -2 -2 -3 -3 -3 -4 -4 -4 -4 -4 -4
10 10 9 9 9 8 8 8 7 7 7 7 6 6 6 5 5 4 4 4 4 4 3 3 3 3 3 3 3 3 3 3 3 3 3 3 3 3 3 3 3 3 3 3 2 2 2 2 2 2 1 1 0 -0 -0 -1 -2 -2 -2 -3 -3 -3 -3 -4 -4 -4 -4 -5 -5
10 10 9 9 9 8 8 8 7 7 7 6 6 6 5 5 4 4 4 4 4 3 3 3 3 3 3 3 3 3 3 3 3 3 3 3 3 3 3 3 3 3 3 3 2 2 2 2 2 1 1 0 -0 -1 -1 -2 -2 -2 -3 -3 -3 -4 -4 -4 -4 -5 -5 -5 -5
10 10 10 9 9 8 8 8 7 7 7 6 6 5 5 5 4 4 4 4 3 3 3 3 3 3 3 3 3 3 3 3 3 3 3 3 3 3 3 3 3 3 3 2 2 2 2 1 1 1 0 -0 -1 -1 -2 -2 -2 -3 -3 -4 -4 -4 -4 -5 -5 -5 -5 -5 -5
10 10 10 9 9 8 8 8 7 7 6 6 6 5 5 4 4 4 4 3 3 3 3 3 3 3 3 3 3 3 3 2 3 3 3 3 3 3 3 3 3 2 2 2 2 2 1 1 0 -0 -0 -1 -1 -2 -2 -3 -3 -3 -4 -4 -4 -5 -5 -5 -5 -5 -5 -6 -6
10 10 9 9 9 9 8 8 7 7 6 6 5 5 4 4 4 3 3 3 3 3 3 3 3 3 3 3 2 2 2 2 3 3 3 3 3 3 3 2 2 2 2 2 2 1 1 0 -0 -1 -1 -1 -2 -2 -3 -3 -3 -4 -4 -4 -5 -5 -5 -5 -5 -5 -6 -6 -6
10 10 10 9 9 9 8 8 7 7 6 6 5 5 4 4 3 3 3 3 3 3 3 3 3 2 2 2 2 2 2 2 2 3 3 3 2 2 2 2 2 2 2 2 1 1 0 -0 -1 -1 -2 -2 -2 -3 -3 -3 -4 -4 -4 -5 -5 -5 -5 -5 -5 -6 -6 -6 -6
10 10 10 9 9 9 8 8 7 7 6 5 5 4 4 3 3 3 3 3 3 3 2 2 2 2 2 2 2 2 2 2 2 2 2 2 2 2 2 2 2 2 1 1 1 -0 -1 -1 -1 -2 -2 -2 -3 -3 -3 -3 -4 -4 -5 -5 -5 -5 -5 -5 -6 -6 -6 -6 -6
10 10 10 9 9 9 8 8 7 6 6 5 4 4 4 3 3 3 3 3 2 2 2 2 2 2 2 2 2 2 2 2 2 2 2 2 2 2 2 2 1 1 1 0 -0 -1 -1 -1 -2 -2 -2 -3 -3 -3 -3 -4 -4 -4 -5 -5 -5 -5 -6 -6 -6 -6 -6 -6 -7
10 10 10 10 9 9 8 8 7 6 5 5 4 4 4 3 3 3 3 2 2 2 2 2 2 2 2 2 2 2 2 2 2 2 2 2 2 2 2 1 1 1 0 -0 -1 -1 -1 -1 -2 -2 -2 -3 -3 -3 -3 -4 -4 -5 -5 -5 -5 -6 -6 -6 -6 -6 -6 -7 -7
10 10 10 10 9 9 8 7 7 6 5 5 4 4 4 3 3 3 2 2 2 2 2 2 2 2 2 2 2 2 2 2 2 2 2 2 2 1 1 1 1 0 -0 -0 -1 -1 -1 -1 -2 -2 -2 -3 -3 -3 -4 -4 -5 -5 -5 -5 -6 -6 -6 -6 -6 -7 -7 -7 -7
10 10 10 10 9 9 8 7 6 6 5 5 4 4 4 3 3 3 2 2 2 2 2 2 2 2 2 2 2 2 2 2 2 2 2 2 1 1 1 1 1 0 -0 -1 -1 -1 -1 -2 -2 -2 -3 -3 -3 -4 -4 -4 -5 -5 -5 -6 -6 -6 -6 -6 -6 -7 -7 -7 -7
10 10 10 10 9 8 8 7 6 5 5 5 4 4 3 3 3 3 2 2 2 2 2 2 2 2 2 2 2 2 2 2 2 2 1 1 1 1 1 1 0 -0 -0 -1 -1 -1 -1 -2 -2 -2 -3 -3 -4 -4 -4 -5 -5 -5 -5 -6 -6 -6 -6 -6 -7 -7 -7 -7 -7
10 10 10 9 9 8 7 6 6 5 5 4 4 4 3 3 3 2 2 2 2 2 2 2 2 1 1 2 2 2 2 2 2 1 1 1 1 1 1 0 -0 -0 -1 -1 -1 -1 -1 -2 -2 -3 -3 -4 -4 -4 -5 -5 -5 -5 -6 -6 -6 -6 -6 -7 -7 -7 -7 -7 -8
9 9 9 8 8 8 7 6 5 5 4 4 4 3 3 3 2 2 2 2 2 2 1 1 1 1 1 1 1 2 1 1 1 1 1 1 1 1 1 0 -0 -0 -1 -1 -1 -1 -2 -2 -3 -3 -3 -4 -4 -4 -5 -5 -5 -6 -6 -6 -6 -6 -7 -7 -7 -7 -8 -8 -8
9 8 8 8 7 7 6 6 5 5 4 4 3 3 3 2 2 2 2 2 1 1 1 1 1 1 1 1 1 1 1 1 1 1 1 1 1 1 0 0 -0 -0 -1 -1 -1 -2 -2 -3 -3 -3 -4 -4 -4 -5 -5 -5 -6 -6 -6 -6 -6 -7 -7 -7 -8 -8 -8 -8 -8
8 8 8 7 7 7 6 5 5 4 4 3 3 3 2 2 2 2 2 1 1 1 1 1 1 1 1 1 1 1 1 1 1 1 1 1 1 1 0 -0 -0 -1 -1 -1 -1 -2 -3 -3 -4 -4 -4 -5 -5 -5 -5 -6 -6 -6 -6 -7 -7 -7 -7 -7 -8 -8 -8 -8 -8
8 7 7 7 7 6 6 5 5 4 4 3 3 2 2 2 2 1 1 1 1 1 1 1 1 1 1 1 1 1 1 1 1 1 1 1 1 0 0 -0 -1 -1 -1 -1 -2 -2 -3 -4 -4 -4 -5 -5 -5 -5 -6 -6 -6 -7 -7 -7 -7 -7 -7 -8 -8 -8 -8 -8 -8
7 7 7 7 6 6 5 5 4 4 3 3 2 2 2 2 1 1 1 1 1 1 1 1 1 1 1 1 1 1 1 1 1 1 1 1 0 0 -0 -0 -1 -1 -1 -1 -2 -2 -3 -4 -4 -5 -5 -5 -5 -6 -6 -6 -6 -7 -7 -7 -7 -8 -8 -8 -8 -8 -7 -7 -8
7 7 7 6 6 5 5 4 4 3 3 2 2 2 2 1 1 1 1 1 1 1 1 1 1 1 1 1 1 1 1 1 1 1 0 0 0 -0 -0 -1 -1 -1 -1 -1 -2 -2 -3 -4 -4 -4 -5 -5 -6 -6 -6 -7 -7 -7 -7 -7 -8 -8 -8 -8 -8 -8 -8 -7 -7
7 7 6 6 5 5 4 4 3 3 2 2 2 1 1 1 1 1 1 1 1 1 1 1 1 1 1 1 1 1 1 1 1 0 0 0 -0 -0 -0 -1 -1 -1 -1 -1 -2 -2 -3 -3 -4 -4 -5 -5 -6 -6 -7 -7 -7 -7 -7 -8 -8 -8 -8 -8 -8 -8 -8 -8 -7
7 6 6 5 5 4 4 3 3 2 2 2 1 1 1 1 1 1 1 1 1 1 1 1 1 1 1 1 1 1 1 1 0 0 0 0 -0 -0 -0 -1 -1 -1 -1 -2 -2 -2 -3 -3 -3 -4 -4 -5 -6 -7 -7 -7 -7 -7 -8 -8 -8 -8 -8 -8 -8 -8 -8 -8 -8
6 6 5 5 4 4 3 2 2 2 1 1 1 1 1 1 1 1 1 1 1 1 1 1 1 1 1 1 1 1 1 0 0 0 0 -0 -0 -0 -0 -1 -1 -1 -1 -1 -2 -2 -3 -3 -3 -4 -4 -5 -6 -7 -7 -7 -7 -8 -8 -8 -8 -8 -8 -8 -8 -8 -8 -8 -8
6 5 5 4 3 3 2 2 1 1 1 1 1 1 0 0 0 1 1 1 1 1 1 1 1 1 1 1 1 1 0 0 0 0 -0 -0 -0 -0 -1 -1 -1 -1 -1 -1 -2 -2 -3 -3 -3 -4 -4 -5 -6 -7 -7 -7 -7 -8 -8 -8 -8 -8 -8 -8 -8 -8 -8 -8 -8
6 5 4 4 3 2 2 1 1 1 1 0 0 0 0 0 0 1 1 1 1 1 1 1 1 1 1 1 0 0 0 0 0 0 -0 -0 -0 -1 -1 -1 -1 -1 -1 -2 -2 -2 -3 -3 -3 -4 -4 -5 -6 -7 -7 -7 -8 -8 -8 -8 -8 -8 -8 -8 -8 -8 -8 -8 -8
5 4 4 3 2 2 1 1 1 0 0 0 0 0 0 0 0 0 0 0 0 0 0 0 1 1 1 0 0 0 0 0 0 -0 -0 -1 -1 -1 -1 -1 -1 -1 -1 -2 -2 -2 -3 -3 -3 -4 -5 -5 -6 -7 -7 -7 -8 -8 -8 -8 -8 -8 -8 -8 -8 -8 -8 -7 -7
4 4 3 2 2 1 1 0 0 0 0 0 0 0 0 0 0 0 0 0 0 0 0 0 0 0 0 0 0 0 0 0 -0 -0 -0 -1 -1 -1 -1 -1 -1 -1 -1 -2 -2 -3 -3 -3 -4 -4 -5 -6 -6 -7 -7 -7 -8 -8 -8 -8 -8 -8 -8 -8 -8 -7 -7 -7 -6
3 3 2 2 1 1 0 -0 -0 -0 -0 0 0 0 0 0 0 0 0 0 0 0 0 0 0 0 0 0 0 0 -0 -0 -0 -0 -1 -1 -1 -1 -1 -1 -1 -1 -2 -2 -2 -3 -3 -3 -4 -4 -5 -6 -6 -7 -7 -8 -8 -8 -8 -8 -8 -8 -8 -7 -7 -7 -6 -6 -6
3 2 1 1 0 0 -0 -0 -0 -0 -0 0 0 0 0 0 0 0 0 0 0 0 0 0 0 0 0 0 -0 -0 -0 -0 -0 -1 -1 -1 -1 -1 -1 -1 -1 -1 -2 -2 -3 -3 -3 -4 -4 -5 -5 -6 -7 -7 -7 -8 -8 -8 -8 -8 -8 -8 -8 -7 -7 -6 -6 -6 -6
2 1 1 0 -0 -0 -0 -0 -0 -0 -0 0 0 0 0 0 0 -0 -0 -0 0 0 -0 -0 -0 -0 -0 -0 -0 -0 -0 -1 -1 -1 -1 -1 -1 -1 -1 -1 -1 -1 -2 -2 -3 -3 -3 -4 -4 -5 -6 -6 -7 -7 -8 -8 -8 -9 -9 -9 -8 -8 -7 -7 -6 -6 -6 -6 -6
1 1 0 -0 -0 -0 -0 -0 -0 -0 -0 -0 -0 -0 -0 -0 -0 -0 -0 -0 -0 -0 -0 -0 -0 -0 -0 -0 -0 -0 -1 -1 -1 -1 -1 -1 -1 -2 -2 -1 -1 -1 -2 -2 -3 -3 -4 -4 -4 -5 -6 -7 -7 -8 -8 -8 -9 -9 -9 -8 -8 -8 -7 -7 -6 -6 -6 -6 -5
1 0 -0 -0 -0 -0 -0 -0 -0 -0 -0 -0 -0 -0 -0 -0 -0 -0 -0 -0 -0 -0 -0 -0 -0 -0 -0 -0 -0 -0 -1 -1 -1 -1 -1 -2 -2 -2 -2 -2 -2 -2 -2 -3 -3 -3 -4 -4 -4 -5 -6 -7 -8 -8 -8 -8 -8 -8 -8 -8 -8 -7 -7 -7 -7 -6 -6 -6 -6
0 -0 -0 -1 -1 -0 -0 -0 -0 -0 -0 -0 -0 -0 -0 -0 -0 -0 -0 -1 -1 -1 -1 -1 -1 -1 -1 -1 -1 -1 -1 -1 -1 -2 -2 -2 -2 -2 -2 -2 -2 -2 -2 -3 -3 -4 -4 -4 -5 -5 -6 -7 -8 -8 -8 -8 -8 -8 -8 -7 -7 -7 -7 -7 -7 -6 -6 -6 -6
-0 -0 -1 -1 -1 -0 -0 -0 -0 -0 -0 -0 -0 -0 -1 -1 -1 -1 -1 -1 -1 -1 -1 -1 -1 -1 -1 -1 -1 -1 -1 -1 -1 -2 -2 -2 -2 -2 -2 -3 -2 -2 -3 -3 -3 -4 -4 -4 -5 -5 -6 -7 -8 -8 -8 -8 -8 -7 -7 -7 -7 -7 -7 -7 -7 -6 -6 -6 -6
Height
1508 1508 1508 1508 1508 1509 1509 1509 1510 1510 1510 1510 1510 1510 1510 1510 1510 1511 1511 1511 1512 1512 1512 1512 1513 1513 1513 1512 1512 1512 1512 1512 1511 1511 1510 1510 1509 1509 1508 1508 1507 1507 1506 1505 1504 1503 1502 1501 1500 1498 1497 1496 1495 1494 1493 1493 1492 1491 1490 1489 1488 1488 1487 1485 1484 1483 1483 1482 1481
1506 1506 1506 1506 1507 1507 1507 1507 1508 1508 1508 1508 1508 1508 1508 1509 1509 1509 1510 1510 1510 1511 1511 1511 1511 1511 1511 1511 1511 1510 1510 1510 1509 1509 1508 1508 1508 1508 1507 1506 1506 1505 1504 1503 1502 1501 1500 1499 1498 1496 1495 1494 1493 1492 1491 1491 1490 1489 1488 1487 1486 1485 1484 1482 1481 1480 1479 1478 1478
1504 1504 1504 1504 1504 1505 1505 1505 1505 1506 1506 1506 1506 1506 1507 1507 1508 1508 1508 1508 1509 1509 1509 1509 1509 1509 1509 1509 1509 1508 1508 1508 1508 1507 1507 1507 1506 1506 1505 1504 1504 1503 1502 1501 1500 1499 1498 1497 1496 1494 1493 1492 1491 1490 1489 1489 1488 1487 1486 1484 1483 1483 1481 1480 1478 1478 1477 1476 1475
1503 1503 1503 1503 1503 1503 1503 1503 1503 1504 1504 1504 1505 1505 1505 1506 1506 1506 1507 1507 1507 1507 1507 1507 1507 1507 1507 1507 1507 1507 1507 1506 1506 1506 1505 1505 1504 1504 1503 1503 1502 1501 1500 1499 1498 1497 1496 1495 1494 1493 1491 1490 1489 1488 1488 1487 1486 1485 1483 1482 1481 1480 1478 1477 1476 1475 1475 1473 1473
1501 1501 1501 1501 1501 1501 1501 1502 1502 1502 1503 1503 1503 1503 1503 1504 1504 1504 1505 1505 1505 1505 1505 1505 1505 1505 1505 1505 1505 1505 1505 1504 1504 1504 1503 1503 1503 1502 1501 1500 1499 1498 1498 1497 1496 1495 1494 1493 1492 1491 1489 1488 1487 1486 1485 1485 1483 1482 1481 1479 1478 1477 1476 1475 1474 1473 1472 1471 1471
1499 1499 1499 1499 1499 1500 1500 1500 1500 1501 1501 1501 1501 1502 1502 1502 1502 1502 1503 1503 1503 1503 1503 1503 1503 1503 1503 1503 1503 1503 1503 1503 1502 1502 1502 1501 1500 1500 1499 1498 1497 1497 1496 1495 1494 1493 1492 1491 1490 1488 1488 1487 1485 1484 1483 1483 1481 1479 1478 1477 1476 1475 1474 1473 1472 1471 1470 1469 1468
1498 1498 1498 1498 1498 1498 1498 1498 1498 1499 1499 1499 1499 1499 1499 1500 1500 1501 1501 1501 1502 1502 1502 1502 1502 1502 1502 1501 1501 1501 1501 1501 1500 1500 1499 1499 1498 1497 1497 1496 1495 1494 1494 1493 1492 1491 1490 1489 1488 1487 1485 1484 1483 1482 1481 1480 1479 1477 1476 1474 1473 1473 1472 1471 1470 1469 1468 1467 1466
1496 1496 1496 1496 1496 1496 1497 1497 1497 1497 1497 1497 1497 1497 1498 1498 1498 1499 1499 1499 1499 1500 1500 1500 1500 1500 1499 1499 1499 1499 1499 1498 1498 1498 1497 1497 1496 1495 1494 1494 1493 1493 1492 1491 1490 1489 1488 1487 1486 1484 1483 1482 1481 1479 1478 1478 1476 1475 1473 1472 1471 1470 1469 1468 1468 1467 1466 1465 1463
1494 1494 1494 1494 1494 1495 1495 1495 1495 1495 1495 1495 1495 1496 1496 1496 1497 1497 1497 1498 1498 1498 1498 1498 1498 1498 1498 1497 1497 1497 1497 1497 1496 1496 1495 1494 1493 1493 1492 1491 1491 1490 1489 1489 1488 1487 1486 1484 1483 1482 1481 1480 1478 1477 1476 1475 1473 1472 1470 1469 1468 1467 1466 1466 1465 1464 1463 1462 1461
1493 1493 1493 1493 1493 1493 1493 1493 1493 1493 1493 1493 1493 1494 1494 1495 1495 1495 1495 1496 1496 1496 1496 1496 1496 1496 1496 1495 1495 1495 1495 1494 1494 1493 1492 1492 1491 1490 1490 1489 1488 1488 1487 1486 1486 1484 1483 1482 1480 1479 1478 1477 1475 1474 1473 1472 1470 1469 1467 1466 1465 1464 1463 1462 1462 1461 1460 1459 1458
1491 1491 1491 1491 1491 1491 1491 1491 1491 1492 1492 1492 1492 1492 1493 1493 1493 1493 1493 1494 1494 1494 1494 1494 1494 1494 1494 1494 1493 1493 1493 1492 1491 1490 1490 1489 1488 1488 1488 1487 1486 1486 1485 1484 1483 1482 1481 1479 1478 1476 1475 1473 1472 1471 1469 1468 1467 1466 1464 1463 1462 1461 1460 1459 1458 1458 1457 1456 1455
1489 1489 1489 1489 1489 1489 1489 1489 1489 1490 1490 1490 1490 1490 1491 1491 1491 1492 1492 1492 1492 1492 1492 1492 1492 1492 1492 1492 1492 1491 1490 1490 1489 1488 1488 1487 1487 1486 1485 1485 1484 1483 1483 1482 1481 1479 1478 1476 1475 1473 1472 1470 1469 1468 1467 1465 1464 1463 1461 1460 1459 1458 1457 1456 1456 1455 1454 1453 1452
1487 1487 1487 1487 1488 1488 1488 1488 1488 1488 1488 1488 1488 1488 1489 1489 1490 1490 1490 1490 1490 1491 1491 1491 1490 1490 1490 1490 1489 1489 1488 1488 1487 1486 1485 1485 1484 1484 1483 1483 1482 1481 1480 1479 1478 1477 1475 1473 1472 1470 1468 1467 1466 1465 1464 1463 1462 1460 1459 1458 1457 1456 1454 1453 1453 1452 1452 1450 1449
1485 1485 1485 1485 1485 1485 1485 1486 1486 1486 1486 1486 1487 1487 1487 1488 1488 1488 1488 1488 1489 1489 1489 1489 1489 1488 1488 1488 1487 1487 1486 1485 1485 1484 1483 1483 1483 1482 1481 1480 1480 1478 1478 1476 1475 1473 1472 1470 1469 1468 1466 1465 1463 1463 1462 1461 1459 1458 1457 1455 1454 1453 1452 1451 1450 1449 1448 1447 1446
1483 1483 1483 1483 1483 1483 1483 1483 1484 1484 1484 1484 1485 1485 1486 1486 1486 1487 1487 1487 1487 1487 1487 1487 1487 1487 1486 1486 1485 1485 1484 1483 1483 1482 1482 1481 1481 1480 1479 1478 1477 1476 1474 1473 1472 1470 1469 1468 1466 1465 1464 1462 1461 1460 1459 1458 1457 1455 1454 1453 1451 1450 1448 1448 1447 1446 1445 1444 1443
1481 1481 1481 1481 1481 1481 1482 1482 1482 1482 1483 1483 1483 1483 1484 1484 1485 1485 1485 1485 1485 1485 1485 1485 1485 1485 1484 1484 1483 1483 1482 1482 1481 1480 1480 1479 1478 1478 1477 1475 1474 1473 1472 1470 1469 1467 1466 1465 1464 1463 1461 1460 1458 1457 1456 1455 1453 1452 1451 1449 1448 1447 1446 1445 1444 1443 1442 1441 1440
1478 1479 1479 1479 1479 1479 1480 1480 1480 1480 1481 1481 1482 1482 1482 1483 1483 1483 1483 1483 1483 1483 1483 1483 1483 1483 1482 1482 1481 1481 1480 1480 1479 1478 1478 1477 1476 1475 1474 1473 1471 1470 1469 1468 1466 1465 1463 1463 1462 1460 1459 1457 1456 1454 1453 1452 1450 1449 1448 1446 1445 1444 1443 1442 1441 1440 1439 1438 1437
1476 1476 1477 1477 1477 1478 1478 1478 1478 1478 1479 1479 1480 1480 1480 1481 1481 1481 1482 1482 1482 1482 1481 1481 1481 1480 1480 1480 1479 1479 1478 1478 1477 1476 1475 1474 1473 1472 1471 1470 1469 1468 1466 1465 1463 1462 1461 1460 1459 1458 1456 1454 1453 1451 1450 1448 1447 1445 1444 1443 1442 1441 1440 1439 1438 1437 1436 1435 1434
1474 1474 1474 1475 1475 1476 1476 1476 1477 1477 1477 1478 1478 1478 1478 1479 1479 1479 1479 1479 1479 1479 1479 1479 1479 1478 1478 1478 1478 1477 1477 1476 1475 1474 1473 1472 1471 1469 1468 1467 1466 1465 1463 1462 1461 1460 1458 1457 1456 1455 1453 1452 1450 1448 1447 1445 1444 1442 1441 1440 1439 1438 1437 1436 1435 1434 1433 1432 1431
1472 1472 1472 1473 1473 1473 1474 1474 1475 1475 1475 1476 1476 1476 1477 1477 1477 1477 1478 1478 1478 1477 1477 1477 1477 1477 1476 1476 1475 1475 1474 1473 1472 1471 1470 1469 1468 1467 1465 1464 1463 1462 1461 1460 1458 1457 1456 1455 1453 1452 1450 1448 1447 1445 1443 1442 1441 1439 1438 1437 1436 1435 1434 1433 1432 1431 1430 1429 1428
1469 1469 1470 1470 1471 1472 1472 1473 1473 1473 1473 1474 1474 1474 1475 1475 1475 1475 1475 1475 1475 1475 1475 1475 1475 1474 1474 1474 1473 1472 1471 1470 1469 1468 1467 1466 1465 1464 1463 1462 1461 1459 1458 1457 1456 1455 1453 1452 1451 1449 1447 1445 1444 1442 1441 1439 1438 1436 1435 1434 1433 1432 1431 1430 1429 1428 1427 1426 1425
1467 1467 1468 1468 1469 1469 1470 1470 1471 1471 1471 1472 1472 1473 1473 1473 1473 1473 1473 1473 1473 1473 1473 1473 1473 1472 1472 1471 1470 1469 1468 1468 1467 1466 1465 1464 1463 1462 1461 1460 1458 1457 1456 1455 1453 1452 1451 1449 1448 1446 1444 1443 1441 1439 1438 1436 1435 1433 1432 1431 1430 1428 1428 1427 1426 1425 1424 1423 1422
1465 1465 1466 1466 1467 1467 1468 1468 1468 1469 1469 1470 1470 1470 1471 1471 1471 1471 1471 1471 1471 1471 1471 1471 1470 1470 1469 1469 1468 1467 1466 1465 1464 1463 1462 1461 1460 1459 1458 1457 1456 1454 1453 1452 1451 1450 1448 1446 1444 1443 1441 1440 1438 1436 1435 1433 1432 1431 1429 1428 1427 1425 1424 1424 1423 1422 1421 1420 1419
1463 1463 1463 1464 1464 1465 1466 1466 1466 1467 1467 1468 1468 1468 1469 1469 1469 1469 1469 1469 1469 1469 1469 1468 1468 1468 1467 1466 1465 1464 1463 1462 1461 1461 1460 1459 1458 1457 1456 1454 1453 1452 1451 1450 1448 1447 1446 1444 1442 1440 1439 1437 1436 1434 1433 1431 1430 1428 1427 1425 1424 1423 1421 1420 1420 1419 1418 1417 1415
1461 1461 1461 1462 1462 1463 1463 1464 1464 1465 1465 1466 1466 1466 1467 1467 1467 1467 1467 1467 1467 1467 1467 1466 1466 1465 1464 1464 1463 1462 1461 1460 1459 1458 1457 1456 1455 1454 1453 1452 1451 1449 1448 1447 1446 1445 1444 1442 1441 1439 1437 1435 1433 1432 1430 1429 1428 1426 1425 1423 1422 1420 1418 1417 1416 1415 1414 1413 1412
1458 1459 1459 1459 1460 1461 1461 1462 1462 1463 1463 1463 1464 1464 1464 1464 1465 1465 1465 1465 1465 1464 1464 1464 1463 1463 1462 1461 1460 1459 1458 1458 1457 1456 1455 1453 1453 1452 1451 1449 1448 1447 1446 1445 1444 1443 1441 1440 1439 1437 1436 1433 1432 1430 1428 1426 1425 1423 1422 1420 1419 1417 1415 1413 1412 1411 1410 1409 1408
1456 1457 1457 1457 1458 1458 1459 1459 1460 1461 1461 1461 1462 1462 1462 1463 1463 1463 1463 1463 1463 1462 1462 1462 1461 1460 1459 1459 1458 1457 1456 1455 1454 1453 1453 1451 1450 1449 1448 1447 1446 1445 1443 1442 1441 1440 1438 1437 1436 1435 1433 1432 1430 1428 1425 1423 1422 1420 1419 1417 1415 1414 1412 1411 1409 1407 1406 1405 1404
1454 1454 1455 1455 1456 1456 1457 1458 1458 1458 1459 1459 1460 1460 1460 1460 1460 1461 1461 1461 1460 1460 1460 1459 1458 1458 1457 1456 1456 1455 1454 1453 1452 1451 1450 1449 1448 1447 1445 1444 1443 1442 1441 1440 1438 1437 1436 1434 1433 1432 1431 1429 1427 1425 1423 1421 1419 1417 1415 1414 1413 1411 1409 1408 1406 1404 1403 1402 1401
1452 1452 1453 1453 1453 1454 1455 1456 1456 1456 1457 1457 1458 1458 1458 1458 1458 1458 1458 1458 1458 1458 1457 1457 1456 1456 1455 1454 1453 1453 1452 1451 1450 1449 1448 1447 1445 1444 1443 1442 1440 1439 1438 1437 1436 1434 1433 1432 1430 1429 1428 1426 1425 1423 1420 1418 1416 1414 1413 1411 1409 1408 1406 1405 1403 1402 1400 1399 1398
1450 1450 1450 1451 1452 1453 1453 1453 1454 1455 1455 1455 1456 1456 1456 1456 1456 1457 1456 1456 1456 1455 1455 1454 1454 1453 1453 1452 1451 1451 1450 1449 1448 1447 1446 1444 1443 1441 1440 1439 1438 1437 1436 1434 1433 1432 1430 1429 1427 1426 1425 1423 1422 1420 1418 1415 1413 1411 1409 1408 1406 1405 1403 1402 1401 1399 1398 1397 1395
1448 1448 1448 1449 1450 1451 1451 1452 1453 1453 1453 1453 1454 1454 1454 1454 1454 1454 1454 1454 1454 1453 1453 1453 1452 1451 1450 1450 1449 1448 1448 1447 1445 1444 1443 1442 1440 1439 1438 1436 1435 1434 1433 1432 1430 1429 1427 1426 1424 1423 1422 1420 1419 1417 1414 1413 1410 1408 1407 1405 1403 1402 1401 1399 1398 1397 1395 1394 1393
1445 1446 1446 1447 1448 1449 1449 1450 1451 1451 1451 1452 1452 1452 1453 1453 1453 1453 1452 1452 1452 1451 1451 1450 1450 1449 1448 1448 1447 1446 1445 1444 1443 1442 1441 1439 1438 1436 1435 1433 1433 1431 1430 1429 1428 1426 1424 1423 1422 1420 1418 1417 1415 1413 1411 1409 1408 1406 1404 1402 1401 1400 1398 1397 1395 1394 1393 1392 1390
1443 1443 1444 1445 1446 1447 1448 1448 1449 1449 1450 1450 1450 1451 1451 1451 1451 1451 1450 1450 1450 1449 1449 1448 1448 1447 1446 1445 1445 1443 1443 1442 1441 1439 1438 1437 1435 1434 1432 1431 1430 1429 1428 1426 1425 1423 1422 1420 1418 1417 1415 1414 1412 1410 1408 1407 1405 1403 1401 1399 1398 1397 1396 1394 1393 1392 1390 1389 1388
1441 1442 1442 1443 1444 1445 1446 1447 1447 1448 1448 1448 1449 1449 1449 1449 1449 1449 1448 1448 1448 1447 1447 1446 1445 1445 1444 1443 1442 1441 1440 1439 1438 1437 1436 1434 1433 1431 1430 1428 1427 1426 1425 1424 1422 1420 1419 1417 1416 1414 1413 1411 1409 1407 1405 1403 1402 1400 1398 1397 1395 1394 1393 1392 1391 1389 1388 1386 1385
1439 1440 1441 1442 1443 1443 1444 1445 1445 1446 1446 1447 1447 1447 1447 1447 1447 1447 1447 1446 1445 1445 1444 1444 1443 1443 1442 1441 1440 1439 1438 1436 1435 1434 1433 1432 1430 1428 1427 1425 1424 1423 1423 1421 1419 1418 1416 1414 1413 1411 1410 1408 1406 1404 1403 1401 1399 1397 1396 1394 1393 1392 1390 1389 1388 1387 1385 1384 1383
1438 1438 1439 1440 1441 1442 1443 1443 1444 1444 1445 1445 1445 1445 1445 1445 1445 1445 1444 1444 1443 1443 1442 1442 1441 1440 1439 1438 1437 1436 1435 1434 1433 1431 1430 1429 1428 1426 1424 1423 1422 1421 1420 1418 1417 1415 1413 1412 1410 1409 1407 1406 1403 1402 1400 1398 1397 1395 1393 1392 1390 1389 1388 1387 1386 1384 1383 1382 1380
1436 1437 1438 1439 1440 1441 1441 1442 1442 1443 1443 1443 1443 1443 1443 1443 1443 1443 1442 1442 1441 1440 1440 1439 1439 1438 1437 1436 1435 1434 1433 1432 1430 1429 1428 1427 1425 1424 1422 1420 1418 1418 1417 1416 1414 1412 1411 1409 1408 1407 1405 1403 1401 1399 1398 1396 1394 1393 1391 1390 1388 1387 1386 1384 1383 1382 1380 1379 1378
1435 1436 1437 1438 1439 1439 1440 1440 1440 1441 1441 1441 1441 1441 1441 1441 1441 1440 1440 1439 1439 1438 1437 1437 1436 1436 1435 1433 1432 1431 1430 1429 1428 1427 1425 1424 1423 1421 1419 1417 1415 1414 1414 1413 1411 1409 1408 1407 1405 1404 1403 1401 1399 1397 1396 1394 1393 1391 1389 1388 1386 1385 1383 1382 1381 1379 1378 1376 1375
1434 1435 1436 1437 1438 1438 1438 1438 1439 1439 1439 1439 1439 1439 1439 1439 1438 1438 1438 1437 1436 1436 1435 1434 1433 1433 1432 1431 1429 1428 1427 1426 1425 1424 1423 1421 1420 1419 1417 1414 1413 1411 1411 1410 1408 1407 1406 1404 1403 1402 1401 1399 1398 1396 1394 1393 1391 1389 1388 1386 1384 1383 1381 1380 1378 1377 1375 1373 1372
1433 1434 1435 1435 1436 1436 1436 1437 1437 1437 1437 1437 1437 1437 1437 1437 1436 1436 1435 1434 1434 1433 1433 1432 1431 1430 1429 1428 1427 1425 1424 1423 1423 1422 1421 1419 1418 1416 1414 1412 1410 1408 1408 1407 1406 1405 1403 1402 1401 1400 1399 1397 1396 1394 1393 1391 1389 1388 1386 1384 1383 1381 1379 1377 1376 1374 1372 1370 1368
1432 1433 1433 1433 1434 1434 1434 1435 1435 1435 1435 1435 1435 1435 1435 1434 1434 1433 1433 1432 1431 1431 1430 1429 1428 1428 1426 1425 1424 1422 1421 1420 1420 1419 1418 1417 1415 1414 1412 1410 1408 1406 1405 1404 1403 1402 1401 1400 1399 1398 1397 1396 1394 1393 1392 1390 1388 1386 1384 1383 1381 1379 1377 1375 1373 1371 1369 1368 1365
Wind_Speed
23 26 29 32 35 38 39 40 40 40 40 40 40 40 40 39 37 36 35 34 33 32 31 30 29 28 27 26 26 25 25 26 26 26 27 28 29 29 30 31 32 33 33 34 34 34 34 34 34 34 35 35 36 37 37 38 38 38 38 39 39 39 39 39 39 39 38 36 35
21 23 26 28 31 34 37 38 39 40 40 40 41 41 40 39 38 36 35 34 33 32 31 30 29 28 27 27 26 26 26 26 27 27 28 29 29 30 31 32 32 33 34 34 35 35 35 35 35 35 35 36 37 37 38 38 38 39 39 40 40 40 39 39 39 38 37 36 34
21 22 24 26 29 31 34 37 39 40 40 40 40 40 40 39 38 37 35 35 34 33 32 30 30 28 27 27 27 27 27 27 28 28 29 29 30 31 32 32 33 34 34 35 35 35 35 35 35 35 36 37 38 38 39 39 39 39 40 40 40 39 39 38 38 37 36 35 34
21 22 23 24 26 28 31 33 36 38 39 39 39 40 40 39 38 37 36 35 34 33 32 31 29 29 28 27 27 27 28 28 28 29 30 30 31 32 32 33 33 34 35 35 36 36 36 35 35 36 37 38 38 39 40 40 40 40 40 40 39 39 38 37 37 36 35 34 33
21 22 22 23 25 26 28 30 33 35 36 37 38 38 39 39 38 37 36 35 34 33 31 30 29 28 28 28 28 28 28 29 29 30 31 31 32 32 33 33 34 35 35 36 36 36 36 36 36 37 38 39 39 40 41 41 41 41 40 40 39 38 37 37 36 35 34 34 33
21 21 22 23 24 26 27 29 30 32 33 35 36 38 38 38 38 37 36 34 33 32 31 30 29 28 28 28 29 29 29 30 30 31 31 32 32 33 33 34 35 35 36 37 37 37 36 37 37 38 39 40 40 41 41 41 40 40 40 39 38 37 37 36 36 35 34 34 34
20 21 21 22 23 25 26 28 29 30 32 33 35 37 38 37 37 36 34 33 32 31 30 29 29 29 29 29 30 30 30 31 31 32 32 32 32 33 34 34 35 36 37 37 37 37 37 37 38 39 40 40 41 41 41 40 40 39 39 39 38 37 36 36 36 35 35 36 36
20 20 21 22 23 24 25 26 28 29 31 32 34 35 36 35 35 33 32 32 31 30 30 30 29 29 30 30 30 30 31 31 31 32 32 32 33 33 34 35 36 37 38 38 38 38 38 38 39 40 41 41 41 41 41 40 39 39 39 39 38 38 37 37 37 37 37 38 38
21 21 21 21 22 23 24 25 27 28 30 31 32 33 33 32 32 32 31 31 30 30 30 29 29 30 30 30 30 30 31 31 31 32 32 33 33 34 35 37 37 38 39 39 39 39 39 39 40 40 41 41 41 41 40 39 39 39 39 39 39 39 38 37 37 37 38 38 39
22 21 21 21 22 23 24 25 26 27 28 29 30 30 30 30 30 30 30 30 29 29 29 29 29 29 30 30 30 30 31 31 32 32 33 33 34 35 37 38 38 39 39 39 39 39 39 40 40 41 41 41 40 40 40 39 39 39 39 39 39 39 39 39 38 38 38 39 39
22 22 22 22 22 23 23 24 25 25 26 27 27 28 28 29 29 29 29 29 29 28 28 29 29 29 29 30 30 30 31 31 32 32 33 34 35 36 37 38 39 39 40 39 39 39 40 40 41 41 41 41 40 40 40 39 39 39 40 40 40 40 40 40 39 38 39 39 40
22 22 22 22 22 22 22 23 23 24 24 25 26 27 27 28 28 28 28 28 28 28 28 29 29 29 29 30 30 30 31 31 32 33 34 35 36 37 38 39 39 40 39 39 39 39 40 40 40 40 40 40 40 39 39 39 39 39 40 40 40 40 40 41 40 40 39 39 40
22 22 21 21 22 22 22 22 22 23 24 24 25 26 26 27 27 27 27 28 28 28 28 29 29 29 29 30 30 31 31 32 32 33 35 36 37 38 39 39 39 39 39 39 39 39 39 39 39 39 39 40 39 39 39 39 39 39 40 40 40 40 41 41 41 40 40 40 40
22 22 22 22 22 22 22 22 22 23 23 24 24 25 25 26 26 27 27 28 28 28 28 29 29 29 30 30 30 31 31 32 33 34 35 36 37 38 38 39 39 38 38 38 38 38 38 38 38 38 38 39 39 39 39 39 39 39 40 40 40 41 41 41 40 40 40 40 40
24 23 23 23 23 23 23 23 23 23 23 23 24 24 25 26 26 27 27 28 28 28 29 29 29 30 30 30 31 31 32 32 33 34 36 37 37 38 38 38 38 38 38 38 38 38 37 37 37 38 38 39 39 39 39 39 39 39 40 40 40 40 40 40 40 39 39 39 40
25 25 25 25 25 24 24 23 23 23 23 23 24 24 25 26 26 27 27 28 28 29 29 29 29 30 30 30 31 31 32 33 34 35 36 37 37 37 37 37 37 37 37 37 37 37 37 37 37 37 38 39 39 40 39 39 39 39 39 39 39 39 40 39 39 39 39 39 39
27 27 27 27 26 25 25 24 24 23 23 24 24 25 25 26 27 27 28 28 28 29 29 29 30 30 30 30 31 31 32 33 34 35 36 36 36 36 36 36 37 37 37 37 37 37 37 37 37 37 38 39 39 40 40 39 39 39 39 39 39 39 39 39 39 39 39 39 39
29 29 29 28 27 26 26 25 24 24 24 24 25 25 26 26 27 27 28 28 29 29 29 29 30 30 30 30 31 31 32 33 34 35 36 36 36 36 36 36 36 37 37 36 36 37 37 37 38 38 39 39 39 39 39 39 39 39 39 39 39 39 39 39 39 39 39 39 39
30 30 30 29 28 27 26 25 25 24 24 25 25 26 26 27 27 28 28 28 29 29 29 29 30 30 30 30 31 32 33 34 35 35 36 36 36 36 36 36 37 37 36 36 37 37 38 38 39 39 39 39 40 40 39 39 39 39 39 39 39 39 39 39 39 39 39 39 39
32 32 31 30 29 27 26 26 25 25 25 25 25 26 27 27 28 28 29 29 29 29 29 30 30 30 30 31 31 32 33 34 35 35 35 35 35 36 36 37 37 37 37 37 37 37 38 39 39 39 39 39 39 39 39 39 39 39 39 39 39 39 39 39 39 39 39 38 38
33 32 32 30 29 27 26 26 25 25 25 25 26 26 27 28 28 29 29 29 29 29 29 30 30 30 31 31 32 33 34 34 35 35 35 35 35 36 36 37 37 37 37 37 38 38 39 39 39 39 39 39 39 39 39 39 39 39 39 39 39 39 39 39 39 39 38 38 38
33 33 32 30 29 28 27 26 26 26 26 26 26 27 28 28 29 29 29 29 29 30 30 30 30 30 31 31 32 33 34 34 34 34 35 35 36 36 37 37 37 37 38 38 38 39 39 39 39 39 39 39 39 39 39 39 39 39 39 40 40 40 40 40 39 39 38 38 39
33 33 31 30 29 28 27 27 26 26 26 26 27 28 28 29 29 29 29 29 30 30 30 30 30 30 31 32 32 33 34 34 34 34 35 35 36 37 37 37 37 38 38 38 38 39 39 39 39 39 38 38 39 39 39 39 39 39 40 40 40 40 40 39 39 38 38 39 39
33 33 32 30 29 28 28 27 27 27 27 27 28 28 29 29 29 29 30 30 30 30 30 30 30 30 31 32 32 33 33 34 34 35 35 36 37 37 37 37 37 38 38 38 38 38 38 38 38 38 38 38 38 38 38 39 39 39 40 40 41 41 41 39 39 39 39 40 41
33 33 32 31 30 29 28 28 28 27 28 28 28 29 29 29 30 30 30 30 30 30 30 30 30 30 31 32 32 33 33 34 34 35 36 37 37 37 37 37 37 37 38 38 38 38 37 37 36 36 37 37 37 38 38 39 39 39 40 40 41 42 42 43 43 43 44 45 45
33 33 33 32 31 30 29 28 28 28 28 29 29 29 30 30 30 30 30 29 29 29 29 29 30 30 31 31 32 33 33 34 35 36 37 37 38 38 37 37 37 38 38 38 38 38 37 36 36 35 35 36 37 38 39 39 40 40 40 41 42 43 44 45 46 46 45 45 44
32 33 33 32 31 30 29 29 29 29 29 29 30 30 30 30 30 29 29 29 29 29 29 29 29 30 31 31 32 33 33 34 35 36 37 38 38 38 38 38 38 38 38 38 39 38 38 37 36 35 35 36 36 37 38 39 40 41 41 42 43 43 44 44 44 44 44 42 41
32 32 32 32 31 30 30 29 29 29 30 30 30 30 29 29 29 29 29 28 28 28 28 29 29 30 31 31 32 32 33 34 35 36 37 37 38 38 38 38 38 38 39 39 39 38 38 38 37 37 36 36 36 36 37 38 39 40 41 42 42 42 42 42 42 42 41 41 40
32 32 32 31 31 30 30 30 30 30 30 30 29 29 29 29 28 28 28 28 28 28 28 28 29 30 30 31 32 33 34 35 35 36 37 37 38 38 38 38 38 39 39 39 39 39 39 38 38 38 37 35 35 35 36 37 39 40 41 41 41 41 40 40 40 40 40 40 41
32 32 32 31 31 30 30 30 30 30 30 29 29 29 28 28 28 27 27 27 27 27 27 28 29 30 30 31 32 33 34 35 36 36 37 37 38 38 38 38 39 39 40 40 40 39 39 39 38 38 37 35 34 34 36 37 38 39 40 40 40 39 39 39 39 39 40 40 40
32 32 31 31 31 30 30 30 30 30 29 29 28 28 27 27 27 27 27 26 26 27 27 28 29 29 30 31 32 33 35 35 36 36 37 37 37 38 38 39 39 40 40 40 40 40 39 39 38 38 36 35 34 34 35 36 37 38 38 37 37 37 37 38 38 39 39 39 39
32 32 31 31 31 30 30 30 30 29 29 28 27 27 27 27 26 26 26 26 26 26 27 28 29 30 31 32 33 34 35 36 36 36 37 37 37 38 38 39 39 40 40 40 40 40 39 39 38 37 36 35 34 34 34 35 36 36 36 36 35 35 36 37 37 38 38 38 38
32 32 31 31 31 30 30 29 29 28 28 27 27 26 26 26 26 25 25 25 25 26 27 28 29 30 31 32 33 35 35 36 36 36 37 37 37 38 38 39 40 40 40 40 40 39 39 38 37 36 35 34 33 33 33 34 34 35 35 35 35 35 35 35 36 36 36 36 36
33 32 31 31 30 30 29 29 28 27 27 26 26 26 25 25 25 24 24 24 25 26 27 28 29 30 32 33 34 35 36 36 36 36 36 36 37 38 38 39 40 40 40 40 39 39 38 38 37 35 34 32 31 32 32 32 33 34 34 34 34 34 34 34 34 34 34 34 34
33 32 31 30 30 29 28 28 27 26 26 26 25 25 25 24 24 24 24 24 25 26 27 28 29 31 32 34 35 35 36 36 36 36 36 36 37 38 39 39 40 40 39 39 39 38 38 37 35 33 32 30 30 30 31 31 32 33 33 34 34 34 33 33 33 33 33 33 33
32 31 30 29 29 28 27 27 26 26 26 25 25 24 24 23 23 23 24 24 25 26 27 29 30 32 33 34 35 36 36 36 36 36 36 36 37 38 39 40 40 40 39 39 38 38 37 35 34 32 30 29 29 29 29 30 31 32 33 33 33 33 33 32 32 32 33 33 34
31 30 29 28 27 27 26 26 26 25 25 25 24 23 23 23 23 23 23 24 25 27 28 29 31 32 34 35 36 36 36 36 36 36 36 36 37 38 39 40 40 40 39 38 38 37 36 34 32 29 28 27 27 28 29 29 30 31 32 32 33 33 33 33 33 33 34 34 35
30 29 28 27 26 26 26 25 25 25 24 24 23 22 22 22 22 23 23 24 25 27 28 30 31 33 35 36 37 37 36 36 36 36 36 36 37 37 39 40 40 40 39 38 37 36 34 32 30 27 25 25 25 27 28 29 30 31 32 33 33 33 33 34 34 35 35 36 36
29 27 26 25 25 25 25 25 24 24 23 22 22 21 21 21 22 22 23 24 25 27 29 30 32 34 35 36 37 37 37 36 35 35 36 36 37 37 38 39 40 40 39 37 36 35 33 30 27 25 23 23 24 25 27 28 30 31 32 33 34 34 35 35 35 36 37 38 39
27 26 25 25 25 25 24 24 23 22 22 21 20 20 21 21 22 22 23 24 25 27 29 31 33 34 36 37 37 37 37 36 35 35 35 36 37 37 38 39 39 39 38 37 35 33 31 28 26 23 22 22 23 24 26 28 30 32 33 34 35 35 36 36 36 37 39 40 41
25 25 24 24 24 24 23 23 22 21 20 20 20 20 21 21 22 22 23 24 26 27 29 31 33 35 36 36 36 36 36 36 35 35 35 36 36 37 37 38 39 39 38 36 34 32 29 27 24 22 21 21 22 24 26 28 31 33 34 34 35 36 37 38 38 39 40 42 43
Wind_Direction
269 265 263 262 260 259 257 257 256 256 256 257 257 258 259 260 260 262 264 266 269 271 273 275 277 278 280 282 285 288 290 293 295 298 301 305 308 310 312 314 316 317 319 320 320 320 320 320 319 319 318 318 317 317 316 316 315 315 314 313 312 311 310 309 307 306 305 303 300
273 269 265 263 261 260 258 257 256 256 256 257 257 258 259 260 260 261 264 266 268 271 272 274 275 277 279 282 285 287 290 293 296 299 302 305 307 310 312 313 315 317 319 319 320 320 320 319 319 318 317 317 316 316 315 314 314 313 312 312 311 310 309 307 306 305 303 301 298
275 271 267 264 262 260 259 258 257 257 257 257 258 259 260 261 261 262 264 266 268 270 272 273 275 277 279 282 285 287 290 293 296 299 302 304 307 309 311 313 315 317 319 320 320 319 319 318 318 317 316 315 315 314 314 313 313 312 311 311 310 309 307 305 304 302 300 297 295
273 271 269 267 266 264 263 262 261 260 260 259 260 261 262 262 263 264 265 267 269 270 272 273 275 277 280 282 285 288 290 293 296 299 302 304 306 309 311 314 316 318 319 319 319 318 318 317 316 315 315 314 314 313 313 313 312 311 311 310 309 307 305 303 302 300 297 294 292
273 272 270 270 269 268 267 266 265 264 263 262 262 262 263 264 265 265 266 268 269 270 272 273 275 278 280 283 285 288 290 293 296 299 302 304 306 309 312 315 316 318 318 318 317 317 316 316 315 314 313 313 312 312 312 312 312 311 310 309 307 305 303 301 299 297 295 292 290
271 271 270 268 267 266 266 265 265 264 264 264 263 263 264 265 265 266 267 268 269 271 272 273 275 278 280 283 285 288 291 294 297 299 302 305 307 310 313 315 316 317 317 316 316 316 315 315 314 313 312 312 311 311 311 312 311 310 309 308 306 304 301 299 297 294 292 289 287
269 268 267 266 265 264 264 264 264 264 264 264 264 264 265 265 266 267 268 269 269 270 271 273 276 278 281 283 286 289 292 295 297 300 303 306 308 311 313 315 315 315 315 315 315 315 314 314 313 312 311 311 311 311 311 311 311 309 307 306 304 301 298 296 294 291 289 287 285
267 266 265 264 263 263 262 262 262 262 263 264 265 266 266 267 268 268 268 269 269 270 272 274 277 279 282 284 287 290 293 296 298 301 303 307 310 312 313 314 314 314 314 314 314 314 313 312 312 311 311 311 311 311 311 311 309 307 305 303 302 299 296 294 292 289 287 286 285
265 264 264 263 262 262 261 261 261 262 263 264 266 267 268 268 269 268 268 268 269 271 273 275 278 280 283 285 288 291 293 296 299 302 305 308 310 312 313 313 313 313 313 313 313 313 312 312 311 311 311 311 311 311 311 310 308 306 304 302 300 298 296 293 291 290 288 286 285
265 265 265 264 263 262 261 261 261 262 264 266 267 267 267 268 268 268 268 269 270 272 274 276 278 281 283 286 288 291 294 297 300 303 306 309 311 312 312 312 313 313 313 313 312 312 312 311 311 311 311 311 312 311 311 309 307 305 303 301 299 298 296 294 292 290 288 287 286
267 267 267 266 265 263 263 263 263 264 265 266 267 266 266 265 265 266 267 268 269 271 273 276 278 281 283 286 289 292 295 298 302 305 308 310 311 311 312 312 312 312 312 312 312 312 311 311 311 312 312 312 312 311 310 308 306 304 302 300 298 296 295 293 291 289 287 287 286
267 267 267 267 266 265 265 265 265 265 265 265 265 264 263 263 263 264 266 267 268 270 273 276 278 281 284 287 290 293 297 300 303 306 308 309 310 310 311 311 311 311 311 311 312 312 312 312 312 312 312 312 311 310 308 307 304 302 299 298 296 294 292 291 290 289 287 286 285
268 268 268 267 266 265 265 265 265 265 264 264 263 262 262 262 262 263 264 266 268 271 274 277 280 283 286 289 292 295 298 302 304 307 308 309 309 309 310 310 310 311 311 311 312 312 312 312 312 312 311 311 309 308 306 304 301 299 297 295 294 292 291 290 290 289 287 286 285
269 269 268 267 267 266 266 265 264 264 264 263 262 262 261 260 261 262 264 266 268 271 274 277 281 284 287 290 293 297 300 303 305 306 307 308 308 308 309 309 310 311 311 312 312 312 312 312 311 310 310 308 308 306 304 301 299 296 295 293 292 291 290 290 290 289 288 286 285
267 268 268 268 267 267 266 266 265 265 264 263 262 261 260 260 261 262 264 266 269 272 275 278 281 285 288 292 295 298 301 303 305 305 306 307 307 308 309 310 311 311 312 312 312 312 311 310 310 309 308 307 306 305 303 301 298 296 294 293 292 291 291 291 290 289 288 287 286
265 265 266 266 267 267 267 267 266 266 265 264 262 261 260 260 262 263 265 267 270 273 276 279 283 286 290 293 296 299 301 303 304 304 305 306 307 308 309 310 312 312 313 313 312 311 310 310 309 308 307 306 305 304 303 301 298 296 295 293 292 292 291 291 290 289 288 287 286
263 263 264 264 265 267 268 268 268 267 265 264 262 261 262 262 264 265 267 269 272 275 278 281 285 289 292 295 297 299 301 302 303 304 305 306 307 309 310 311 312 313 313 312 311 311 310 310 309 308 307 307 305 304 303 301 299 297 296 295 293 292 291 291 290 289 287 286 285
262 262 263 264 265 267 268 268 268 267 266 264 263 263 264 265 266 267 269 272 274 277 280 283 287 290 293 296 298 299 300 301 302 304 305 307 308 310 311 312 313 313 312 312 311 311 311 311 310 310 309 307 306 304 302 301 299 298 297 295 294 293 292 291 289 288 287 286 285
262 262 263 264 265 267 268 268 268 267 265 264 264 264 265 266 268 269 271 273 276 279 282 285 288 291 293 296 297 299 300 301 303 304 306 308 310 311 312 313 313 313 312 311 311 311 311 311 311 310 309 307 306 304 302 301 299 298 297 296 295 293 292 291 290 288 287 285 285
261 262 262 263 265 267 267 268 267 266 265 264 264 265 265 267 268 269 271 273 277 280 283 286 289 291 293 295 297 299 300 302 304 306 308 309 311 312 313 313 313 312 312 311 311 311 312 312 311 310 309 307 306 304 303 301 300 298 297 296 295 293 293 291 290 289 287 286 285
261 261 262 263 264 266 266 267 266 264 264 264 264 264 265 266 268 269 271 274 277 280 283 286 289 292 294 296 298 300 302 304 305 307 309 311 312 313 313 313 312 312 312 312 312 312 312 312 311 310 309 307 306 304 303 302 300 299 298 296 295 294 293 292 291 289 288 286 285
262 261 262 262 263 264 265 264 263 262 262 263 263 264 264 265 267 269 271 274 277 280 284 287 289 292 294 297 299 301 303 305 307 308 310 311 312 312 312 312 312 312 312 312 313 313 313 312 311 310 309 307 306 305 303 302 300 299 298 296 295 294 293 292 290 288 287 285 284
262 262 262 262 262 263 263 262 261 261 261 262 262 263 263 264 266 269 272 275 278 281 284 288 290 293 296 298 300 302 304 306 307 309 310 311 312 312 312 312 312 312 312 313 313 313 313 312 311 310 308 307 305 304 303 301 299 298 296 295 294 292 291 290 288 287 285 284 283
263 262 262 262 261 261 261 261 261 260 260 261 261 262 263 264 267 269 272 276 279 283 286 289 291 294 297 299 301 303 305 307 308 309 310 311 311 312 312 312 312 312 312 313 313 313 312 311 309 308 307 305 304 302 300 298 296 295 293 292 292 291 289 287 286 285 284 284 284
263 263 262 261 261 260 260 260 259 259 259 260 260 261 263 265 267 270 274 277 281 284 287 290 293 295 298 300 302 304 305 307 309 310 311 311 311 311 311 311 311 312 312 313 313 313 311 309 307 306 305 303 301 299 297 295 293 291 290 289 289 289 288 287 286 286 285 286 286
264 263 262 261 260 259 259 258 258 258 258 259 260 261 263 265 268 272 275 279 282 285 288 291 294 296 299 301 302 304 306 308 309 310 311 311 311 311 311 311 311 312 312 313 313 313 311 309 307 305 302 300 298 296 294 292 291 289 288 288 288 288 288 288 288 288 288 288 288
264 263 262 262 260 258 257 257 257 257 257 258 259 261 264 267 270 273 277 280 283 286 289 292 295 297 299 301 303 305 307 308 309 310 310 310 310 310 311 311 312 312 313 314 313 313 311 309 307 305 302 299 297 294 293 292 291 290 289 288 288 288 288 288 288 289 289 289 289
263 263 262 261 259 257 256 256 255 255 256 258 260 262 265 268 271 275 278 282 285 287 290 293 296 298 300 302 304 305 307 308 309 309 310 310 309 310 310 311 312 313 314 314 314 313 311 310 308 306 303 300 297 294 292 291 291 290 289 288 288 288 287 287 288 289 290 290 290
262 262 261 260 258 256 255 254 254 254 256 258 260 263 267 270 274 277 280 283 286 289 291 294 297 299 301 303 304 306 307 308 308 309 309 309 309 309 310 311 313 313 314 314 314 313 312 311 309 308 306 303 298 295 292 290 290 289 289 288 288 288 288 288 288 289 290 291 292
261 260 259 258 257 255 253 253 253 254 256 259 261 265 268 272 276 279 281 284 287 290 293 295 298 299 301 303 304 306 307 307 308 308 309 309 309 309 310 312 313 314 314 314 314 313 312 311 310 309 307 303 299 295 292 290 290 290 289 289 289 289 289 290 290 291 292 293 293
260 259 258 257 255 253 252 252 253 254 257 259 263 267 270 274 277 280 283 285 288 291 294 296 298 300 301 303 304 306 307 307 308 308 308 308 309 309 310 312 313 314 314 315 314 313 313 312 311 309 307 304 300 297 294 292 292 291 290 290 289 289 289 290 291 292 293 294 294
259 258 257 255 253 251 250 251 252 255 258 261 265 269 272 275 278 281 283 286 289 292 295 297 298 300 302 303 305 306 307 308 308 308 308 308 309 309 310 311 313 314 314 314 314 313 313 312 311 310 308 306 302 299 296 294 293 291 291 290 289 289 290 292 293 295 295 296 297
257 256 255 253 251 249 249 250 253 256 259 263 267 271 274 276 279 282 284 288 291 293 295 297 299 301 303 305 306 307 308 308 308 308 308 308 309 309 310 311 312 314 314 314 314 313 313 313 312 311 309 307 303 300 296 294 292 291 291 291 291 292 294 295 296 297 299 300 301
254 254 253 251 249 248 248 251 254 257 261 265 269 272 274 277 280 283 286 289 292 294 296 298 301 303 305 306 307 308 308 308 308 308 308 308 309 310 310 311 313 314 314 314 314 314 314 313 313 312 310 307 303 300 297 295 294 293 293 294 295 297 298 299 300 301 302 304 305
253 252 251 249 248 247 249 251 255 259 263 267 270 272 275 278 281 284 288 291 293 296 298 300 303 305 306 307 308 308 308 308 307 307 308 308 309 310 311 311 312 313 314 314 314 314 314 315 314 313 311 307 303 300 298 296 296 296 296 297 298 300 301 303 304 305 306 307 307
252 251 249 247 247 248 250 253 257 261 264 267 269 272 275 278 282 285 289 292 295 298 300 303 305 307 308 308 308 308 307 307 307 307 308 309 310 310 311 311 312 313 314 315 315 315 316 316 315 314 311 307 303 300 299 298 298 298 299 299 300 302 305 307 308 308 308 308 309
251 249 247 246 247 249 252 255 258 261 264 266 269 272 275 279 283 287 291 294 297 299 302 304 307 308 308 308 308 307 307 307 307 307 308 309 310 311 311 312 312 314 315 316 316 316 317 317 316 314 310 306 303 301 301 300 300 300 301 302 303 305 308 309 309 309 309 309 311
249 247 246 246 248 250 253 256 259 261 263 266 269 272 276 281 285 289 293 296 299 302 304 306 307 308 308 308 307 307 307 307 307 308 309 310 311 312 312 312 313 314 316 317 317 318 317 317 315 313 310 306 304 303 302 302 302 303 304 304 305 307 309 309 309 309 309 311 312
247 246 245 246 248 251 254 256 258 260 263 266 270 274 279 283 287 290 294 298 301 304 305 307 307 307 307 307 306 306 307 307 307 308 309 310 311 312 312 313 313 315 316 317 318 318 318 316 315 312 310 307 306 305 305 305 305 305 305 305 306 306 308 309 309 309 310 312 313
246 245 245 246 248 251 253 255 257 260 263 268 272 277 281 285 288 292 296 300 303 305 306 306 306 306 306 306 306 306 307 307 308 309 310 310 311 312 312 313 314 315 317 318 318 318 317 316 315 314 312 310 309 309 309 307 306 305 305 305 305 306 307 308 309 309 310 312 313
245 244 244 246 247 250 252 254 257 261 265 270 275 280 284 287 290 294 298 301 303 304 305 305 305 305 305 305 306 306 306 307 308 309 310 310 311 312 313 313 314 315 317 318 318 318 317 317 316 316 315 313 313 312 310 307 305 304 304 305 306 306 307 308 310 310 311 312 313